[[{"header":{"parameterUnit":"m.s-1","parameterCategory":1,"la1":30.2991,"la2":30.254,"lo1":-89.0895,"lo2":-89.0444,"dy":0.0017,"dx":0.0017,"nx":28,"ny":28,"refTime":"2025-01-23T03:00:00:Z","depth":0,"parameterNumber":2,"parameterNumberName":"U-component_of_WINDS"},"data":[0,0,0,0,0,0,0,0,0,0,0,0,0,0,0,0,0,0,0,0,0,0,0,0,0,0,0,0,0,0,0,0,0,0,0,0,0,0,0,0,0,0,0,0,0,0,0,0,0,0,0,0,0,0,0,0,0,0,2.368,2.3681,0,2.3752,2.3753,2.3754,2.3719,2.3717,2.3715,2.3713,2.3786,2.3789,2.3793,0,0,0,0,0,0,0,0,0,0,0,0,0,2.351,2.3513,2.368,2.3681,2.3682,2.3752,2.3753,2.3754,2.3719,2.3717,2.3714,2.3712,2.3785,2.3789,2.3793,0,0,0,0,0,0,0,0,0,0,0,0,0,2.3583,2.3514,2.368,2.3672,2.3673,2.3752,2.3753,2.3754,2.3719,2.3717,2.3714,2.3711,2.3783,2.3789,2.3794,2.3884,0,0,2.3811,2.3813,0,0,0,0,0,0,0,0,2.3579,2.3589,2.3673,2.3673,2.3673,2.3724,2.372,2.3798,2.372,2.3702,2.3713,2.371,2.3767,2.3774,2.3794,2.3887,2.3891,2.3811,2.3815,2.3817,2.3819,0,0,0,0,0,0,0,2.3574,2.3586,2.3708,2.3674,2.3674,2.3665,2.3673,2.3735,2.3749,2.3703,2.3701,2.371,2.3767,2.3788,2.3795,2.3892,2.3811,2.3816,2.3819,2.3822,2.4064,2.4067,0,0,0,0,0,0,2.3569,2.3582,2.3706,2.3711,2.3618,2.3671,2.3679,2.371,2.3748,2.3752,2.3712,2.3708,2.378,2.3789,2.3797,2.3906,2.3817,2.3822,2.3825,2.4061,2.4065,2.4068,0,0,0,0,0,0,2.3566,2.3581,2.3703,2.3646,2.3661,2.3677,2.3712,2.3713,2.3735,2.3755,2.3758,2.3731,2.3778,2.379,2.3863,2.3908,2.3825,2.383,2.4057,2.4062,2.4066,2.4123,0,0,0,0,0,0,2.3561,2.358,2.3614,2.3647,2.3664,2.3768,2.3715,2.3717,2.3744,2.3739,2.3774,2.3777,2.3777,2.3855,2.3869,2.3914,2.3834,2.4053,2.4059,2.4065,2.4117,2.4129,2.4139,0,0,0,0,0,2.3555,2.3627,2.3616,2.3631,2.3707,2.377,2.378,2.3779,2.3748,2.3783,2.3796,2.3776,2.3901,2.3863,2.3878,2.3925,2.405,2.4058,2.4064,2.4112,2.4127,2.4139,0,0,0,0,0,0,2.3598,2.3631,2.3619,2.3704,2.3735,2.3764,2.3808,2.3794,2.3834,2.3828,2.3825,2.3833,2.3909,2.3925,2.3882,2.4015,2.3971,2.3981,2.4002,2.4016,2.4027,2.4021,2.3839,0,0,0,0,0,2.3617,2.3666,2.3692,2.3764,2.378,2.3792,2.3819,2.3816,2.3848,2.386,2.3879,2.3911,2.3957,2.3987,2.4031,2.412,2.4127,2.416,2.4171,2.418,2.4189,2.4237,2.4252,2.4091,2.4091,2.4091,0,0,2.3658,2.3682,2.3712,2.3773,2.3797,2.3847,2.3803,2.3858,2.3895,2.3869,2.3939,2.3954,2.3989,2.4071,2.4108,2.4086,2.4235,2.4189,2.4196,2.42,2.4246,2.4261,2.4275,2.4096,2.4095,2.4094,0,0,2.3756,2.378,2.3842,2.3867,2.3904,2.3912,2.3927,2.3959,2.3968,2.4039,2.4021,2.4065,2.4145,2.4171,2.4194,2.4305,2.4288,2.432,2.4377,2.4424,2.4437,2.4448,2.4487,2.4502,2.4328,2.4329,2.4329,0,2.3801,2.3877,2.3876,2.3933,2.3961,2.394,2.4003,2.4028,2.4077,2.4096,2.4071,2.4172,2.4194,2.4281,2.4309,2.4329,2.4346,2.4315,2.4435,2.4446,2.4457,2.4494,2.4509,2.4332,2.4332,2.4331,2.4331,0,2.3931,2.3984,2.403,2.4079,2.4112,2.4172,2.418,2.4213,2.4207,2.4218,2.4291,2.4317,2.4366,2.4386,2.4381,2.4474,2.4459,2.4435,2.439,2.4476,2.4511,2.4525,2.4337,2.4336,2.4335,2.4334,0,0,2.4057,2.4106,2.4123,2.4145,2.4185,2.4226,2.4285,2.4334,2.4363,2.4398,2.4447,2.4516,2.4495,2.4522,2.4519,2.4561,2.4648,2.4532,2.4533,2.4552,2.4751,2.4769,2.4786,2.4637,2.464,2.4642,2.4748,0,2.4159,2.4263,2.4265,2.4361,2.441,2.4391,2.4443,2.4473,2.4485,2.4528,2.454,2.459,2.4557,2.4573,2.4614,2.4628,2.4687,2.4621,2.4683,2.4685,2.4674,2.4804,2.4822,2.4922,2.4762,2.4765,2.4766,0,2.4291,2.4331,2.4432,2.4466,2.4487,2.4533,2.4579,2.462,2.4654,2.466,2.4691,2.4683,2.4743,2.4698,2.4781,2.4736,2.4762,2.4773,2.4777,2.4782,2.473,2.4812,2.4953,2.4968,2.4788,2.4786,2.4785,0,2.4373,2.4453,2.4523,2.4543,2.4584,2.4617,2.4636,2.4667,2.4697,2.4737,2.4756,2.4802,2.4827,2.4863,2.4868,2.4834,2.4952,2.4907,2.4958,2.4958,2.4983,2.4981,2.513,2.5001,2.5,2.5,2.5,0,2.4486,2.4548,2.4561,2.4604,2.4674,2.4675,2.4744,2.476,2.4789,2.4835,2.4822,2.4866,2.4869,2.4915,2.4919,2.4988,2.4999,2.5005,2.5005,2.5006,2.5005,2.5022,2.5015,2.5004,2.5003,2.5002,2.5002,0,2.4589,2.46,2.4676,2.4709,2.4719,2.4769,2.4797,2.4839,2.485,2.4909,2.4922,2.4939,2.4992,2.5,2.5062,2.5065,2.5147,2.514,2.5136,2.5135,2.5185,2.518,2.5349,2.5372,2.5229,2.523,2.5231,0,2.466,2.4708,2.4746,2.4777,2.4798,2.4847,2.4877,2.4881,2.4913,2.4956,2.4993,2.5044,2.5085,2.517,2.5188,2.5235,2.5229,2.5285,2.5236,2.5236,2.523,2.5227,2.5231,2.5294,2.5296,2.5297,2.5298,0,2.4785,2.4788,2.4833,2.488,2.4917,2.4954,2.4989,2.5014,2.5023,2.506,2.5114,2.5146,2.5209,2.5261,2.5308,2.5327,2.5314,2.5314,2.5328,2.5329,2.5324,2.5327,2.5161,2.531,2.5308,2.5308,2.5307,2.5307,2.4873,2.4915,2.495,2.5,2.5027,2.506,2.5102,2.5118,2.5163,2.5216,2.5215,2.5274,2.5308,2.5371,2.5393,2.5439,2.5421,2.5442,2.5447,2.5452,2.5457,2.5318,2.5448,2.5448,2.5447,2.5447,2.5447,0,2.4997,2.5019,2.5065,2.5115,2.5155,2.5141,2.5179,2.5214,2.5266,2.5299,2.534,2.5403,2.5453,2.5475,2.5524,2.5557,2.5553,2.557,2.5567,2.5572,2.547,2.5453,2.5573,2.5573,2.5573,2.5573,2.5573,2.5573,2.5066,2.5137,2.5145,2.5228,2.5249,2.5308,2.5331,2.5362,2.5388,2.5459,2.5501,2.5515,2.5544,2.5596,2.5641,2.5646,2.5665,2.5685,2.5687,2.5592,2.5579,2.5567,2.555,2.5689,2.5689,2.5785,2.5786,2.5787]},{"header":{"parameterUnit":"m.s-1","parameterCategory":1,"la1":30.2991,"la2":30.254,"lo1":-89.0895,"lo2":-89.0444,"dy":0.0017,"dx":0.0017,"nx":28,"ny":28,"refTime":"2025-01-23T03:00:00:Z","depth":0,"parameterNumber":3,"parameterNumberName":"V-component_of_WINDS"},"data":[0,0,0,0,0,0,0,0,0,0,0,0,0,0,0,0,0,0,0,0,0,0,0,0,0,0,0,0,0,0,0,0,0,0,0,0,0,0,0,0,0,0,0,0,0,0,0,0,0,0,0,0,0,0,0,0,0,0,-4.9419,-4.9421,0,-4.9593,-4.9595,-4.9597,-4.9555,-4.9552,-4.9548,-4.9545,-4.9722,-4.9729,-4.9737,0,0,0,0,0,0,0,0,0,0,0,0,0,-4.9045,-4.9052,-4.9418,-4.9421,-4.9423,-4.9593,-4.9595,-4.9598,-4.9556,-4.9552,-4.9547,-4.9544,-4.9719,-4.9728,-4.9738,0,0,0,0,0,0,0,0,0,0,0,0,0,-4.9212,-4.9054,-4.9418,-4.9422,-4.9425,-4.9593,-4.9595,-4.9598,-4.9557,-4.9551,-4.9546,-4.9542,-4.9716,-4.9727,-4.9739,-4.9913,0,0,-4.9775,-4.978,0,0,0,0,0,0,0,0,-4.9203,-4.9226,-4.942,-4.9422,-4.9425,-4.9547,-4.9528,-4.9704,-4.9558,-4.9506,-4.9545,-4.9539,-4.9668,-4.9683,-4.9727,-4.9921,-4.9929,-4.9776,-4.9783,-4.9788,-4.9791,0,0,0,0,0,0,0,-4.9191,-4.9218,-4.9488,-4.9422,-4.9426,-4.9414,-4.9433,-4.9561,-4.9613,-4.951,-4.9508,-4.9529,-4.9668,-4.9716,-4.9731,-4.9931,-4.9776,-4.9786,-4.9793,-4.9798,-5.0275,-5.028,0,0,0,0,0,0,-4.9178,-4.9209,-4.9482,-4.9493,-4.9299,-4.9425,-4.9446,-4.9513,-4.9612,-4.9622,-4.9533,-4.9527,-4.9698,-4.9717,-4.9737,-4.9946,-4.9788,-4.9799,-4.9806,-5.0269,-5.0276,-5.0282,0,0,0,0,0,0,-4.917,-4.9203,-4.9475,-4.935,-4.9384,-4.9437,-4.9513,-4.9519,-4.9567,-4.9629,-4.9638,-4.9573,-4.9695,-4.972,-4.9869,-4.9951,-4.9804,-4.9815,-5.0263,-5.0271,-5.0279,-5.0366,0,0,0,0,0,0,-4.9159,-4.92,-4.9267,-4.9352,-4.9391,-4.9606,-4.9518,-4.9526,-4.9587,-4.958,-4.9668,-4.9678,-4.9693,-4.9852,-4.9881,-4.9965,-4.9824,-5.0256,-5.0267,-5.0277,-5.0356,-5.0376,-5.0393,0,0,0,0,0,-4.9146,-4.9285,-4.9271,-4.9304,-4.9477,-4.9611,-4.9633,-4.9648,-4.9594,-4.9662,-4.9701,-4.9675,-4.9937,-4.9867,-4.99,-4.9988,-5.025,-5.0263,-5.0276,-5.0347,-5.0372,-5.0393,0,0,0,0,0,0,-4.9208,-4.9296,-4.9282,-4.9452,-4.9524,-4.9603,-4.9689,-4.9674,-4.9762,-4.9752,-4.9766,-4.9786,-4.9938,-4.9978,-4.9898,-5.0161,-5.0086,-5.0106,-5.0129,-5.0153,-5.0172,-5.0159,-4.9834,0,0,0,0,0,-4.9241,-4.9344,-4.9415,-4.9558,-4.9595,-4.9636,-4.9695,-4.97,-4.9775,-4.9806,-4.9856,-4.9929,-5.0028,-5.0093,-5.0187,-5.0361,-5.0379,-5.0438,-5.0456,-5.0472,-5.0488,-5.0582,-5.0609,-5.0324,-5.0324,-5.0323,0,0,-4.9312,-4.9372,-4.9436,-4.9572,-4.9629,-4.9733,-4.9662,-4.9776,-4.9854,-4.9823,-4.9967,-5.0006,-5.0088,-5.025,-5.0324,-5.0288,-5.0571,-5.0488,-5.0499,-5.0508,-5.0598,-5.0624,-5.0648,-5.0332,-5.0331,-5.0329,0,0,-4.9493,-4.955,-4.9675,-4.9733,-4.9819,-4.9845,-4.9875,-4.9957,-4.9982,-5.0127,-5.0105,-5.0197,-5.0367,-5.0426,-5.0479,-5.0681,-5.0659,-5.0711,-5.0809,-5.09,-5.0923,-5.0943,-5.1014,-5.1039,-5.0728,-5.0728,-5.0728,0,-4.9569,-4.9727,-4.9741,-4.9857,-4.9917,-4.9894,-5.0019,-5.0075,-5.0188,-5.0229,-5.0187,-5.04,-5.0454,-5.0628,-5.0677,-5.0721,-5.0755,-5.0701,-5.0919,-5.0939,-5.0958,-5.1026,-5.1052,-5.0734,-5.0733,-5.0732,-5.0732,0,-4.9816,-4.9925,-5.0016,-5.0126,-5.0195,-5.0316,-5.0347,-5.0415,-5.0414,-5.0444,-5.0591,-5.0655,-5.0761,-5.0803,-5.0803,-5.0978,-5.0952,-5.0915,-5.084,-5.099,-5.1054,-5.1081,-5.0742,-5.074,-5.0738,-5.0737,0,0,-5.0042,-5.0157,-5.019,-5.0239,-5.0332,-5.0416,-5.0535,-5.0639,-5.0698,-5.0776,-5.0875,-5.1019,-5.0984,-5.1044,-5.105,-5.113,-5.1284,-5.1082,-5.1084,-5.1117,-5.1479,-5.1507,-5.1537,-5.1271,-5.1276,-5.128,-5.1472,0,-5.0231,-5.0441,-5.0456,-5.0645,-5.0745,-5.0724,-5.0827,-5.0895,-5.0926,-5.1015,-5.1048,-5.115,-5.1097,-5.1133,-5.1211,-5.1249,-5.1357,-5.1236,-5.1362,-5.1366,-5.1342,-5.1571,-5.16,-5.1779,-5.1497,-5.1502,-5.1505,0,-5.048,-5.0566,-5.0765,-5.0842,-5.0885,-5.0978,-5.1074,-5.116,-5.1235,-5.1252,-5.1318,-5.1313,-5.1433,-5.1354,-5.1519,-5.1436,-5.1488,-5.1514,-5.1522,-5.1534,-5.1444,-5.1588,-5.1837,-5.1863,-5.1545,-5.1541,-5.1539,0,-5.0624,-5.0789,-5.0929,-5.0972,-5.1066,-5.1131,-5.1174,-5.1244,-5.1306,-5.1389,-5.1429,-5.1525,-5.1578,-5.1652,-5.1673,-5.1613,-5.1837,-5.176,-5.1853,-5.1853,-5.1901,-5.1898,-5.2161,-5.1936,-5.1935,-5.1935,-5.1934,0,-5.0833,-5.0956,-5.0995,-5.1081,-5.1217,-5.1232,-5.1366,-5.1404,-5.1467,-5.1559,-5.1546,-5.1633,-5.1655,-5.1745,-5.1762,-5.1895,-5.1919,-5.1935,-5.1938,-5.1937,-5.1934,-5.1971,-5.1959,-5.1942,-5.1941,-5.1939,-5.1938,0,-5.1017,-5.1049,-5.12,-5.1276,-5.1298,-5.1395,-5.146,-5.1542,-5.1571,-5.1688,-5.1716,-5.1761,-5.1866,-5.1894,-5.202,-5.2031,-5.2188,-5.218,-5.2163,-5.2163,-5.2254,-5.2245,-5.255,-5.259,-5.2339,-5.2341,-5.2343,0,-5.1149,-5.1242,-5.1329,-5.139,-5.1435,-5.1534,-5.1596,-5.1614,-5.168,-5.1772,-5.1843,-5.1947,-5.2031,-5.22,-5.2243,-5.2339,-5.2333,-5.2433,-5.2347,-5.2342,-5.2333,-5.2327,-5.2336,-5.2449,-5.2452,-5.2454,-5.2456,0,-5.1379,-5.1389,-5.148,-5.1577,-5.1651,-5.1728,-5.1801,-5.1852,-5.188,-5.1954,-5.2062,-5.2127,-5.2255,-5.2358,-5.2455,-5.2497,-5.2481,-5.2482,-5.2509,-5.2508,-5.2494,-5.2502,-5.2207,-5.2475,-5.2473,-5.2472,-5.2471,-5.247,-5.154,-5.1622,-5.1695,-5.1797,-5.1853,-5.1922,-5.2003,-5.2041,-5.2132,-5.2238,-5.2243,-5.236,-5.2431,-5.2559,-5.2607,-5.2698,-5.2667,-5.2706,-5.2716,-5.2725,-5.2733,-5.248,-5.2715,-5.2715,-5.2714,-5.2714,-5.2714,0,-5.1769,-5.1815,-5.1908,-5.201,-5.209,-5.2068,-5.2147,-5.2215,-5.2318,-5.2387,-5.247,-5.2593,-5.2692,-5.2743,-5.2841,-5.2904,-5.2899,-5.2929,-5.2925,-5.2934,-5.2755,-5.2722,-5.2932,-5.2932,-5.2932,-5.2932,-5.2931,-5.2931,-5.1897,-5.2034,-5.2053,-5.2217,-5.2262,-5.2377,-5.2424,-5.2486,-5.2541,-5.2679,-5.2762,-5.2794,-5.2855,-5.2958,-5.3047,-5.306,-5.3096,-5.313,-5.3138,-5.2969,-5.2947,-5.2926,-5.2895,-5.3138,-5.3138,-5.3311,-5.3312,-5.3313]}]]